Home   Weather   Leipzig   Past weeks
Flag for Germany

Past Weather in Leipzig, Saxony, Germany — Yesterday and Last 2 Weeks

Now
90 °F

Passing clouds.


Feels Like: 89 °F
Forecast: 90 / 68 °F
Wind: 8 mph from Southeast

Location: Leipzig-Schkeuditz

Current Time: Aug 25, 2019 at 2:46:25 pm

Latest Report: Aug 25, 2019 at 2:20 pm


Visibility: N/A

Pressure: 30.09 "Hg

Humidity: 36%

Dew Point: 59 °F

Location of LeipzigLocation

Past Weather in Leipzig — Graph

°F

Leipzig Temperature Yesterday

Maximum temperature yesterday: 84 °F (at 2:20 pm)
Minimum temperature yesterday: 55 °F (at 5:50 am)
Average temperature yesterday: 72 °F

High & Low Weather Summary for the Past Weeks

 TemperatureHumidityPressure
High90 °F (Aug 25, 1:20 pm)100% (Aug 16, 1:20 am)30.36 "Hg (Aug 16, 1:20 am)
Low54 °F (Aug 15, 2:20 am)25% (Aug 23, 4:50 pm)29.71 "Hg (Aug 18, 3:20 pm)
Average68 °F58%30.06 "Hg
* Reported Aug 10 1:20 pm — Aug 25 1:50 pm, Leipzig. Weather by CustomWeather, © 2019

Note: Actual official high and low records may vary slightly from our data, if they occured in-between our weather recording intervals... More about our weather records

Advertising

Leipzig Weather History for the Previous 24 Hours

Scroll right to see more
 ConditionsComfort  
Time TempWeatherWind HumidityBarometerVisibility
1:50 pm
Sun, Aug 25
88 °FPassing clouds.12 mph40%30.09 "HgN/A
1:20 pm90 °FPassing clouds.8 mph38%30.09 "HgN/A
12:50 pm86 °FPassing clouds.10 mph43%30.12 "HgN/A
12:20 pm86 °FPassing clouds.6 mph43%30.12 "HgN/A
11:50 am84 °FPassing clouds.9 mph48%30.12 "HgN/A
11:20 am81 °FPassing clouds.6 mph54%30.12 "HgN/A
10:50 am79 °FSunny.5 mph58%30.12 "Hg10 mi
10:20 am79 °FPassing clouds.5 mph58%30.12 "HgN/A
9:50 am75 °FPassing clouds.6 mph65%30.12 "HgN/A
9:20 am73 °FPassing clouds.6 mph65%30.12 "HgN/A
8:50 am72 °FPassing clouds.6 mph69%30.12 "HgN/A
8:20 am70 °FPassing clouds.5 mph73%30.12 "HgN/A
7:50 am68 °FSunny.5 mph73%30.12 "Hg10 mi
7:20 am64 °FSunny.5 mph83%30.12 "Hg10 mi
6:50 am64 °FSunny.3 mph83%30.12 "Hg10 mi
6:20 am63 °FPassing clouds.6 mph88%30.12 "HgN/A
5:50 am64 °FClear.6 mph83%30.09 "Hg10 mi
5:20 am64 °FClear.5 mph83%30.09 "Hg10 mi
4:50 am64 °FClear.6 mph83%30.09 "Hg10 mi
4:20 am64 °FClear.6 mph83%30.12 "Hg10 mi
2:50 am68 °FClear.6 mph73%30.12 "Hg10 mi
2:20 am68 °FClear.6 mph73%30.12 "Hg10 mi
1:50 am68 °FClear.7 mph73%30.12 "Hg10 mi
1:20 am70 °FClear.8 mph69%30.12 "Hg10 mi
12:50 am70 °FClear.9 mph69%30.12 "Hg10 mi
12:20 am70 °FClear.10 mph69%30.12 "Hg10 mi
11:50 pm
Sat, Aug 24
72 °FClear.9 mph65%30.12 "Hg10 mi
11:20 pm72 °FClear.8 mph61%30.12 "Hg10 mi
10:50 pm73 °FClear.7 mph57%30.12 "Hg10 mi
10:20 pm73 °FClear.8 mph57%30.15 "Hg10 mi
9:50 pm73 °FClear.8 mph57%30.15 "Hg10 mi
9:20 pm73 °FClear.8 mph57%30.15 "Hg10 mi
8:50 pm77 °FClear.9 mph51%30.15 "Hg10 mi
8:20 pm79 °FClear.8 mph48%30.12 "Hg10 mi
7:50 pm81 °FSunny.8 mph45%30.12 "Hg10 mi
7:20 pm81 °FSunny.10 mph45%30.12 "Hg10 mi
6:50 pm82 °FSunny.10 mph40%30.12 "Hg10 mi
6:20 pm84 °FSunny.12 mph37%30.12 "Hg10 mi
5:50 pm84 °FPassing clouds.13 mph35%30.15 "HgN/A
5:20 pm84 °FPassing clouds.10 mph35%30.15 "HgN/A
4:50 pm84 °FPassing clouds.13 mph35%30.15 "HgN/A
4:20 pm84 °FPassing clouds.13 mph35%30.15 "HgN/A
3:50 pm82 °FPassing clouds.12 mph37%30.15 "HgN/A
3:20 pm84 °FPassing clouds.13 mph35%30.18 "HgN/A
2:50 pm82 °FPassing clouds.12 mph35%30.18 "HgN/A
2:20 pm84 °FPassing clouds.15 mph35%30.18 "HgN/A
Weather by CustomWeather, © 2019

See weather overview